Weather History for Rifle, CO

Change the Weather History Date:

Monday, August 26, 2013

  Actual Average Record
Temperature  
Mean Temperature 70 °F 68 °F  
Max Temperature 80 °F 86 °F 98 °F (1937)
Min Temperature 59 °F 51 °F 35 °F (1962)
Degree Days  
Heating Degree Days 0 0  
Month to date heating degree days 0 0  
Since 1 June heating degree days 13 60  
Since 1 July heating degree days 0 1  
Cooling Degree Days 5 4  
Month to date cooling degree days 160 159  
Year to date cooling degree days 657 502  
Since 1 June cooling degree days 650 495  
Growing Degree Days 20 (Base 50)    
Moisture  
Dew Point 57 °F    
Average Humidity 68    
Maximum Humidity 97    
Minimum Humidity 39    
Precipitation  
Precipitation 0.03 in 0.04 in 0.59 in (1914)
Month to date precipitation 0.30 1.14  
Year to date precipitation 5.06 8.71  
Sea Level Pressure  
Sea Level Pressure 30.18 in    
Wind  
Wind Speed 4 mph (West)    
Max Wind Speed 18 mph    
Max Gust Speed 22 mph    
Visibility 10 miles    
Events Rain    
T = Trace of Precipitation, MM = Missing Value Source: NWS Daily Summary

Daily Weather History Graph

Daily Weather History Graph

Search for Another Location

Airport:

Trip Planner

Search our weather history database for the weather conditions in past years. The results will help you decide how hot, cold, wet, or windy it might be!

Date:

Astronomy

Aug. 26, 2013 Rise Set
Actual Time 6:33 AM MDT 7:50 PM MDT
Civil Twilight 6:05 AM MDT 8:18 PM MDT
Nautical Twilight 5:32 AM MDT 8:51 PM MDT
Astronomical Twilight 4:57 AM MDT 9:26 PM MDT
Moon 11:05 PM MDT (8/26) 12:36 PM MDT (8/26)
Length of Visible Light 14h 12m
Length of Day
13h 16m
Waning Gibbous, 66% of the Moon is Illuminated
Aug 26
Waning Gibbous
Aug 28
Last Quarter
Sep 5
New
Sep 12
First Quarter
Sep 19
Full

Hourly Weather History & Observations

Time (MDT) Temp. Dew Point Humidity Pressure Visibility Wind Dir Wind Speed Gust Speed Precip Events Conditions
12:11 AM 60.8 °F 59.0 °F 94% 30.30 in 10.0 mi Calm Calm - N/A   Scattered Clouds
12:53 AM 61.0 °F 59.0 °F 93% 30.12 in 10.0 mi Calm Calm - N/A   Scattered Clouds
1:02 AM 60.8 °F 59.0 °F 94% 30.30 in 10.0 mi Calm Calm - N/A   Mostly Cloudy
1:53 AM 60.1 °F 57.9 °F 93% 30.15 in 10.0 mi West 4.6 mph - N/A   Overcast
2:14 AM 60.8 °F 57.2 °F 88% 30.31 in 10.0 mi WNW 3.5 mph - N/A   Overcast
2:25 AM 60.8 °F 57.2 °F 88% 30.31 in 10.0 mi WNW 3.5 mph - N/A   Overcast
2:53 AM 60.1 °F 57.9 °F 93% 30.15 in 7.0 mi Calm Calm - 0.01 in Rain Rain
3:25 AM 60.8 °F 57.2 °F 88% 30.31 in 10.0 mi Calm Calm - 0.01 in   Overcast
3:33 AM 60.8 °F 57.2 °F 88% 30.31 in 10.0 mi ESE 3.5 mph - 0.01 in   Mostly Cloudy
3:53 AM 60.1 °F 57.9 °F 93% 30.16 in 10.0 mi Calm Calm - 0.01 in Rain Light Rain
3:57 AM 60.8 °F 59.0 °F 94% 30.32 in 10.0 mi Calm Calm - 0.00 in Rain Light Rain
4:28 AM 60.8 °F 57.2 °F 88% 30.32 in 10.0 mi Calm Calm - 0.00 in Rain Light Rain
4:53 AM 60.1 °F 57.9 °F 93% 30.16 in 10.0 mi Calm Calm - 0.00 in   Mostly Cloudy
5:04 AM 60.8 °F 57.2 °F 88% 30.32 in 10.0 mi Calm Calm - N/A   Overcast
5:22 AM 60.8 °F 57.2 °F 88% 30.32 in 10.0 mi Calm Calm - N/A   Overcast
5:53 AM 60.1 °F 59.0 °F 96% 30.16 in 10.0 mi Calm Calm - N/A   Mostly Cloudy
6:53 AM 60.1 °F 59.0 °F 96% 30.16 in 8.0 mi Calm Calm - N/A   Overcast
7:49 AM 60.8 °F 59.0 °F 94% 30.33 in 5.0 mi Calm Calm - N/A   Scattered Clouds
7:53 AM 60.1 °F 59.0 °F 96% 30.18 in 5.0 mi Calm Calm - N/A   Scattered Clouds
8:42 AM 62.6 °F 60.8 °F 94% 30.33 in 8.0 mi Calm Calm - N/A   Mostly Cloudy
8:53 AM 63.0 °F 60.1 °F 90% 30.18 in 9.0 mi Calm Calm - N/A   Mostly Cloudy
9:53 AM 64.0 °F 59.0 °F 84% 30.18 in 10.0 mi Calm Calm - N/A   Scattered Clouds
10:53 AM 68.0 °F 60.1 °F 76% 30.17 in 10.0 mi Calm Calm - N/A   Clear
11:53 AM 73.0 °F 57.9 °F 59% 30.13 in 10.0 mi Calm Calm - N/A   Scattered Clouds
12:53 PM 75.0 °F 54.0 °F 48% 30.11 in 10.0 mi West 6.9 mph - N/A   Mostly Cloudy
1:53 PM 78.1 °F - N/A% 30.09 in 10.0 mi West 5.8 mph - N/A   Clear
2:53 PM 78.1 °F 53.1 °F 42% 30.08 in 10.0 mi West 9.2 mph - N/A   Overcast
3:53 PM 73.9 °F 57.0 °F 55% 30.08 in 10.0 mi WNW 9.2 mph - 0.00 in Rain Light Rain
4:53 PM 78.1 °F 55.0 °F 45% 30.05 in 10.0 mi West 11.5 mph - 0.00 in   Mostly Cloudy
5:53 PM 79.0 °F 53.1 °F 40% 30.02 in 10.0 mi West 8.1 mph - 0.01 in   Clear
6:53 PM 79.0 °F 51.1 °F 38% 30.02 in 10.0 mi West 9.2 mph - N/A   Clear
7:53 PM 75.9 °F 51.1 °F 42% 30.03 in 10.0 mi WSW 6.9 mph - N/A   Partly Cloudy
8:53 PM 72.0 °F 55.0 °F 55% 30.05 in 10.0 mi NE 3.5 mph - N/A   Mostly Cloudy
9:53 PM 69.1 °F 57.0 °F 65% 30.06 in 10.0 mi SSE 3.5 mph - N/A   Clear
10:53 PM 66.9 °F 55.9 °F 68% 30.06 in 10.0 mi Calm Calm - N/A   Clear
11:53 PM 66.0 °F 55.9 °F 70% 30.06 in 10.0 mi SSE 6.9 mph - N/A   Partly Cloudy